Погода в Беликах

Украина / Полтавская область     49°59′21″N   33°40′01″E
темп.,
°C
ветер,
м/с
пор.,
м/с
влажн.,
%
обл.,
%
осадки,
мм/ч
давл.,
гПа
погр.,
м
18 апреля, вс
вс1800:00+6зюз2589100 0.0 1019191
03:00+6юз2490100 0.0 1018164
06:00+6ююз3592100 0.1 1018202
09:00+6зюз3687100 0.4 1017423
12:00+9ююз5766100 0.4 10171196
15:00+9зсз5775100 0.9 10171110
18:00+7з258995 2.1 1017459
21:00+5с469462 2.1 1018248
19 апреля, пн
пн1900:00+4ссз349699 0.0 101883
03:00+3ссв239683 0.0 101843
06:00+3с339564 0.0 101844
09:00+8ссв347366 0.0 1018460
12:00+12ссв346070 0.0 10171246
15:00+13ссв3349100 0.1 10161867
18:00+11св3568100 0.0 1016286
21:00+9св347716 0.1 1016123
20 апреля, вт
вт2000:00+6св34855 0.0 101559
03:00+5св369185 0.0 1013124
06:00+5св3788100 0.0 1011137
09:00+10св61065100 0.0 1009631
12:00+8ссв61184100 0.6 1006499
15:00+9ссв61088100 3.5 10041116
18:00+9с71288100 3.4 1001843
21:00+9ссз71388100 4.1 1000820
21 апреля, ср
ср2100:00+8сз61187100 0.3 10021029
03:00+7сз71290100 0.4 1005666
06:00+6зсз61090100 0.0 1008654
09:00+7з688194 0.1 1011768
12:00+9з6765100 0.1 10131286
15:00+11зюз5756100 0.3 10141784
18:00+10юз4763100 0.0 1015659
21:00+6ююз357628 0.0 101775
22 апреля, чт
чт2200:00+5ю367564 0.0 1018102
03:00+5ю4108080 0.0 1018182
06:00+5ю4991100 0.1 1018178
09:00+10ююз5880100 0.4 1019476
12:00+14ююз666199 0.0 10181175
15:00+16ююз564945 1.1 10171882
18:00+15ю585816 0.3 1017557
21:00+10ююв488132 0.8 1017140